This is the latest recevied weather packets stored in our database for station/object JL1CBB-13. If no packets are shown the sender has not sent any weather packets the latest 10 day(s).
| Time | Temp. | Humidity | Pressure | Rain* | Wind** | Luminosity | Snow |
|---|---|---|---|---|---|---|---|
| 1777661559 | 13.33° C | 83% | 1000 hPa | 0 mm | - | - | - |
| 1777660959 | 13.33° C | 83% | 1001 hPa | 0 mm | - | - | - |
| 1777660359 | 13.33° C | 83% | 1001 hPa | 0 mm | - | - | - |
| 1777659759 | 13.89° C | 82% | 998 hPa | 0 mm | - | - | - |
| 1777659159 | 13.89° C | 82% | 999 hPa | 0 mm | - | - | - |
| 1777658559 | 13.89° C | 82% | 999 hPa | 0 mm | - | - | - |
| 1777657959 | 13.89° C | 82% | 999 hPa | 0 mm | - | - | - |
| 1777657359 | 14.44° C | 81% | 999 hPa | 0 mm | - | - | - |
| 1777656758 | 14.44° C | 81% | 999 hPa | 0 mm | - | - | - |
| 1777656158 | 14.44° C | 81% | 998 hPa | 0 mm | - | - | - |
| 1777655558 | 14.44° C | 81% | 997 hPa | 0 mm | - | - | - |
| 1777654959 | 14.44° C | 81% | 997 hPa | 0 mm | - | - | - |
| 1777654359 | 14.44° C | 81% | 997 hPa | 0 mm | - | - | - |
| 1777653759 | 14.44° C | 82% | 997 hPa | 0 mm | - | - | - |
| 1777653159 | 14.44° C | 83% | 997 hPa | 0 mm | - | - | - |
| 1777652559 | 14.44° C | 84% | 998 hPa | 0 mm | - | - | - |
| 1777651959 | 13.89° C | 87% | 998 hPa | 0 mm | - | - | - |
| 1777651359 | 13.89° C | 90% | 998 hPa | 0 mm | - | - | - |
| 1777650759 | 13.33° C | 92% | 998 hPa | 0 mm | - | - | - |
| 1777650159 | 12.78° C | 90% | 997 hPa | 0 mm | - | - | - |
| 1777649558 | 13.33° C | 90% | 997 hPa | 0 mm | - | - | - |
| 1777648958 | 13.33° C | 89% | 997 hPa | 0 mm | - | - | - |
| 1777648358 | 13.33° C | 88% | 998 hPa | 0 mm | - | - | - |
| 1777647758 | 13.33° C | 88% | 998 hPa | 0 mm | - | - | - |
| 1777647158 | 13.89° C | 88% | 997 hPa | 0 mm | - | - | - |
* Rain latest hour (hover to see other rain measurements)
** Current wind speed in m/s (hover to see current wind gust speed)